Location: Newark
(43.4306°N, 0.3089°E)
Time: 02:11:26
(UTC+00:00)

Vanguard 1 Rocket - Pass Details

Date: 27 August 2019
Orbit: 652 x 4225 km, 34.3° (Epoch: 15 September)

Event Time Altitude Azimuth Distance (km) Brightness Sun altitude
Exits shadow 04:11:44 16° 236° (SW) 1,862 8.4 -11.8°
Maximum altitude 04:14:47 29° 186° (S) 1,545 8.3 -11.3°
Drops below altitude 10° 04:20:40 10° 129° (SE) 3,151 10.5 -10.4°
Sets 04:24:46 0° 119° (ESE) 4,653 11.6 -9.7°
